| time (UTC) | temp F | wind direction | speed MPH | gust MPH | rain 1hr in | rain 24hr in | rain mn in | humidity % | barometer mb |
| 20260903213017 | 96 | 115 | 4.0 | 11.0 | 0.00 | 0.00 | 0.00 | 43 | 1009.7 |
| 20260903211508 | 97 | 124 | 8.0 | 14.0 | 0.00 | 0.00 | 0.00 | 41 | 1009.8 |
| 20260903210005 | 98 | 179 | 1.0 | 11.0 | 0.00 | 0.00 | 0.00 | 41 | 1010.0 |
| 20260903204504 | 96 | 212 | 5.0 | 10.0 | 0.00 | 0.00 | 0.00 | 43 | 1010.2 |
| 20260903203004 | 96 | 134 | 5.0 | 12.0 | 0.00 | 0.00 | 0.00 | 44 | 1010.5 |
| 20260903201600 | 97 | 172 | 4.0 | 9.0 | 0.00 | 0.00 | 0.00 | 43 | 1010.6 |
| 20260903200058 | 97 | 185 | 5.0 | 11.0 | 0.00 | 0.00 | 0.00 | 42 | 1010.8 |
| 20260903194603 | 97 | 183 | 5.0 | 11.0 | 0.00 | 0.00 | 0.00 | 42 | 1010.8 |
| 20260903193052 | 95 | 58 | 3.0 | 13.0 | 0.00 | 0.00 | 0.00 | 46 | 1011.0 |
| 20260903191550 | 95 | 92 | 2.0 | 10.0 | 0.00 | 0.00 | 0.00 | 45 | 1011.4 |
| 20260903190048 | 95 | 281 | 5.0 | 14.0 | 0.00 | 0.00 | 0.00 | 47 | 1011.5 |
| 20260903184546 | 95 | 185 | 3.0 | 14.0 | 0.00 | 0.00 | 0.00 | 46 | 1011.8 |
| 20260903183043 | 94 | 200 | 5.0 | 14.0 | 0.00 | 0.00 | 0.00 | 49 | 1012.0 |
| 20260903181540 | 94 | 207 | 7.0 | 14.0 | 0.00 | 0.00 | 0.00 | 48 | 1012.3 |
| 20260903180054 | 93 | 103 | 5.0 | 14.0 | 0.00 | 0.00 | 0.00 | 51 | 1012.4 |
| 20260903174535 | 92 | 187 | 3.0 | 11.0 | 0.00 | 0.00 | 0.00 | 52 | 1012.4 |
| 20260903173034 | 92 | 193 | 4.0 | 13.0 | 0.00 | 0.00 | 0.00 | 53 | 1012.5 |
| 20260903171531 | 91 | 148 | 8.0 | 14.0 | 0.00 | 0.00 | 0.00 | 55 | 1012.9 |
| 20260903170043 | 90 | 125 | 6.0 | 15.0 | 0.00 | 0.00 | 0.00 | 56 | 1013.0 |
| 20260903164533 | 90 | 230 | 5.0 | 14.0 | 0.00 | 0.00 | 0.00 | 57 | 1013.1 |
| 20260903163024 | 89 | 195 | 7.0 | 14.0 | 0.00 | 0.00 | 0.00 | 58 | 1013.1 |
| 20260903161527 | 88 | 148 | 7.0 | 17.0 | 0.00 | 0.00 | 0.00 | 59 | 1013.2 |
| 20260903160025 | 87 | 176 | 7.0 | 15.0 | 0.00 | 0.00 | 0.00 | 61 | 1013.2 |
| 20260903154519 | 87 | 235 | 5.0 | 11.0 | 0.00 | 0.00 | 0.00 | 65 | 1013.1 |
| 20260903153018 | 86 | 230 | 5.0 | 13.0 | 0.00 | 0.00 | 0.00 | 67 | 1013.1 |
| 20260903151513 | 85 | 221 | 6.0 | 13.0 | 0.00 | 0.00 | 0.00 | 69 | 1013.0 |
| 20260903150012 | 84 | 236 | 6.0 | 13.0 | 0.00 | 0.00 | 0.00 | 71 | 1013.0 |
| 20260903144509 | 83 | 232 | 8.0 | 0.0 | 0.00 | 0.00 | 0.00 | 73 | 1013.0 |
| 20260903143007 | 83 | 210 | 7.0 | 16.0 | 0.00 | 0.00 | 0.00 | 73 | 1013.0 |
| 20260903141506 | 82 | 173 | 7.0 | 16.0 | 0.00 | 0.00 | 0.00 | 78 | 1013.0 |
| 20260903140005 | 81 | 204 | 5.0 | 18.0 | 0.00 | 0.00 | 0.00 | 80 | 1013.0 |
| 20260903134503 | 81 | 170 | 9.0 | 17.0 | 0.00 | 0.00 | 0.00 | 81 | 1013.1 |
| 20260903133003 | 80 | 210 | 7.0 | 14.0 | 0.00 | 0.00 | 0.00 | 82 | 1013.2 |
| 20260903131503 | 80 | 185 | 3.0 | 10.0 | 0.00 | 0.00 | 0.00 | 83 | 1013.1 |
| 20260903130002 | 79 | 231 | 5.0 | 13.0 | 0.00 | 0.00 | 0.00 | 84 | 1013.0 |
| 20260903124503 | 79 | 208 | 6.0 | 14.0 | 0.00 | 0.00 | 0.00 | 85 | 1013.0 |
| 20260903123100 | 78 | 221 | 5.0 | 12.0 | 0.00 | 0.00 | 0.00 | 86 | 1012.9 |
| 20260903121601 | 78 | 212 | 6.0 | 13.0 | 0.00 | 0.00 | 0.00 | 86 | 1012.7 |
| 20260903120059 | 78 | 192 | 6.0 | 15.0 | 0.00 | 0.00 | 0.00 | 87 | 1012.5 |
| 20260903114608 | 78 | 195 | 7.0 | 14.0 | 0.00 | 0.00 | 0.00 | 87 | 1012.5 |
| 20260903113105 | 78 | 182 | 5.0 | 15.0 | 0.00 | 0.00 | 0.00 | 87 | 1012.5 |
| 20260903111554 | 78 | 167 | 6.0 | 16.0 | 0.00 | 0.00 | 0.00 | 87 | 1012.4 |
| 20260903104559 | 78 | 170 | 6.0 | 13.0 | 0.00 | 0.00 | 0.00 | 88 | 1012.3 |
| 20260903103049 | 77 | 191 | 6.0 | 12.0 | 0.00 | 0.00 | 0.00 | 89 | 1012.2 |
| 20260903101547 | 77 | 179 | 4.0 | 10.0 | 0.00 | 0.00 | 0.00 | 89 | 1012.3 |
| 20260903100045 | 77 | 172 | 4.0 | 8.0 | 0.00 | 0.00 | 0.00 | 90 | 1012.4 |
| 20260903094545 | 77 | 223 | 3.0 | 9.0 | 0.00 | 0.00 | 0.00 | 89 | 1012.3 |
| 20260903093053 | 77 | 169 | 5.0 | 10.0 | 0.00 | 0.00 | 0.00 | 89 | 1012.4 |
| 20260903091542 | 77 | 170 | 5.0 | 10.0 | 0.00 | 0.00 | 0.00 | 88 | 1012.4 |
| 20260903090040 | 77 | 180 | 6.0 | 12.0 | 0.00 | 0.00 | 0.00 | 88 | 1012.5 |
| 20260903084538 | 77 | 173 | 5.0 | 11.0 | 0.00 | 0.00 | 0.00 | 87 | 1012.5 |
| 20260903083037 | 77 | 157 | 5.0 | 12.0 | 0.00 | 0.00 | 0.00 | 87 | 1012.5 |
| 20260903081540 | 77 | 221 | 5.0 | 11.0 | 0.00 | 0.00 | 0.00 | 86 | 1012.5 |
| 20260903080034 | 78 | 167 | 5.0 | 10.0 | 0.00 | 0.00 | 0.00 | 85 | 1012.6 |
| 20260903074534 | 78 | 202 | 5.0 | 11.0 | 0.00 | 0.00 | 0.00 | 84 | 1012.7 |
| 20260903073030 | 78 | 189 | 5.0 | 10.0 | 0.00 | 0.00 | 0.00 | 84 | 1012.9 |
| 20260903071528 | 78 | 173 | 5.0 | 10.0 | 0.00 | 0.00 | 0.00 | 82 | 1012.8 |
| 20260903070031 | 79 | 144 | 6.0 | 11.0 | 0.00 | 0.00 | 0.00 | 81 | 1012.9 |
| 20260903064524 | 79 | 195 | 5.0 | 12.0 | 0.00 | 0.00 | 0.00 | 80 | 1013.0 |
| 20260903063021 | 80 | 136 | 6.0 | 13.0 | 0.00 | 0.00 | 0.00 | 79 | 1013.0 |
| 20260903061519 | 80 | 164 | 6.0 | 14.0 | 0.00 | 0.00 | 0.00 | 76 | 1013.1 |
| 20260903060017 | 81 | 144 | 7.0 | 15.0 | 0.00 | 0.00 | 0.00 | 73 | 1013.1 |
| 20260903054522 | 81 | 171 | 7.0 | 14.0 | 0.00 | 0.00 | 0.00 | 71 | 1013.2 |
| 20260903053011 | 82 | 163 | 8.0 | 19.0 | 0.00 | 0.00 | 0.00 | 69 | 1013.2 |
| 20260903051508 | 82 | 173 | 8.0 | 17.0 | 0.00 | 0.00 | 0.00 | 67 | 1013.0 |
| 20260903050005 | 83 | 131 | 8.0 | 16.0 | 0.00 | 0.00 | 0.00 | 66 | 1012.9 |
| 20260903044504 | 83 | 138 | 5.0 | 12.0 | 0.00 | 0.00 | 0.00 | 65 | 1012.8 |
| 20260903043003 | 83 | 118 | 4.0 | 12.0 | 0.00 | 0.00 | 0.00 | 64 | 1012.7 |
| 20260903041505 | 83 | 124 | 5.0 | 10.0 | 0.00 | 0.00 | 0.00 | 63 | 1012.6 |
| 20260903040003 | 84 | 143 | 5.0 | 11.0 | 0.00 | 0.00 | 0.00 | 62 | 1012.5 |
| 20260903034503 | 84 | 104 | 5.0 | 13.0 | 0.00 | 0.00 | 0.00 | 60 | 1012.6 |
| 20260903033000 | 85 | 91 | 6.0 | 17.0 | 0.00 | 0.00 | 0.00 | 59 | 1012.5 |
| 20260903031600 | 85 | 102 | 5.0 | 9.0 | 0.00 | 0.00 | 0.00 | 58 | 1012.4 |
| 20260903030100 | 86 | 86 | 4.0 | 8.0 | 0.00 | 0.00 | 0.00 | 57 | 1011.9 |
| 20260903024559 | 86 | 62 | 4.0 | 8.0 | 0.00 | 0.00 | 0.00 | 56 | 1011.7 |
| 20260903023059 | 87 | 135 | 3.0 | 6.0 | 0.00 | 0.00 | 0.00 | 55 | 1011.5 |
| 20260903021558 | 88 | 138 | 3.0 | 6.0 | 0.00 | 0.00 | 0.00 | 53 | 1011.3 |
| 20260903020059 | 88 | 91 | 3.0 | 5.0 | 0.00 | 0.00 | 0.00 | 52 | 1010.9 |
| 20260903014609 | 89 | 70 | 3.0 | 8.0 | 0.00 | 0.00 | 0.00 | 51 | 1010.8 |
| 20260903013055 | 91 | 89 | 2.0 | 3.0 | 0.00 | 0.00 | 0.00 | 47 | 1010.6 |
| 20260903011556 | 91 | 84 | 2.0 | 3.0 | 0.00 | 0.00 | 0.00 | 46 | 1010.6 |
| 20260903010055 | 92 | 82 | 2.0 | 3.0 | 0.00 | 0.00 | 0.00 | 46 | 1010.5 |
| 20260903004554 | 93 | 146 | 1.0 | 3.0 | 0.00 | 0.00 | 0.00 | 43 | 1010.5 |
| 20260903003053 | 94 | 123 | 0.0 | 2.0 | 0.00 | 0.00 | 0.00 | 41 | 1010.5 |
| 20260903001555 | 94 | 137 | 1.0 | 3.0 | 0.00 | 0.00 | 0.00 | 41 | 1010.5 |
| 20260903000052 | 95 | 145 | 1.0 | 4.0 | 0.00 | 0.00 | 0.00 | 40 | 1010.6 |
| 20260902234550 | 97 | 105 | 2.0 | 5.0 | 0.00 | 0.00 | 0.00 | 38 | 1010.6 |
| 20260902233049 | 97 | 100 | 0.0 | 5.0 | 0.00 | 0.00 | 0.00 | 39 | 1010.6 |
| 20260902231549 | 98 | 153 | 3.0 | 6.0 | 0.00 | 0.00 | 0.00 | 38 | 1010.7 |
| 20260902230048 | 98 | 176 | 1.0 | 4.0 | 0.00 | 0.00 | 0.00 | 38 | 1010.7 |
| 20260902224550 | 97 | 143 | 3.0 | 6.0 | 0.00 | 0.00 | 0.00 | 40 | 1010.7 |
| 20260902223046 | 96 | 197 | 3.0 | 7.0 | 0.00 | 0.00 | 0.00 | 41 | 1010.7 |
| 20260902221544 | 95 | 179 | 3.0 | 5.0 | 0.00 | 0.00 | 0.00 | 42 | 1010.9 |
| 20260902220043 | 93 | 164 | 4.0 | 8.0 | 0.00 | 0.00 | 0.00 | 44 | 1010.9 |
| 20260902214543 | 93 | 182 | 3.0 | 10.0 | 0.00 | 0.00 | 0.00 | 45 | 1011.1 |